TSX-5

Satellite information

Favourite Embed

Satellite Type and Status

PAYLOADIN ORBIT

Key statistics

Satellite TSX-5 at a glance.

Uptime

9223

Days in orbit

Revolutions

≈ 14.5

Per day

Orbit

LEO

Low Earth Orbit

Inclination

68.9

Latest

Satellite identification and parameters

Extended collection of information and parameters for TSX-5.

Object identification

Identified? True

Debris? False

Object name: TSX-5

International designator: 2000-030A

Object number (NORAD): 26374

Object ID (CCSDS): 26374

Country: UNITED STATES OF AMERICA (US)

Current information (Y/N): Y

RCS size: LARGE

Orbital parameters

Period: 99.307 minutes

Inclination: 68.9204 deg

SMA: 7103.611 km

Apoapsis: 1060.737 km

Periapsis: 390.215 km

RAAN: 326.3002 deg

Eccentricy: 0.04719584

Argument of periapsis: 45.2772 deg

Mean anomaly: 318.5779 deg

Mean motion: 14.50053405 rev/day

Mean motion (dot): 0.00016559 rev/day2

B* drag term: 0.00096049831 1/REarth

Two-line elements (TLE)

Creation date: Sept. 7, 2025, 3:09 a.m.

Reference frame: TEME

Reference center: EARTH

Epoch: Sept. 6, 2025, 2:50 p.m. UTC

TLE line 0: 0 TSX-5

TLE line 1: 1 26374U 00030A 25249.61864778 .00016559 00000-0 96050-3 0 9993

TLE line 2: 2 26374 68.9204 326.3002 0471958 45.2772 318.5779 14.50053405281277

Live tracking on map

Real-time ground track for satellite TSX-5.

In-orbit conjunctions

A list of the most updated potential collisions computed for object TSX-5.

Target Orbit TCA Probability of collision Miss distance Type
CZ-6A DEB SSO 2025-09-06 22:55:49 0.00122738 227.0 (m) DEBRIS
DMSP 5D-3 F16 DEB SSO 2025-06-25 23:26:35 0.0003006937 293.0 (m) DEBRIS
CZ-4B DEB SSO 2025-04-19 14:26:41 0.0001113728 789.0 (m) DEBRIS
GEOSAT SSO 2024-12-31 07:52:07 0.000102116 687.0 (m) PAYLOAD
SL-8 DEB LEO 2024-06-23 20:52:32 0.0005298842 55.0 (m) DEBRIS

Associated space launch

TSX-5 was lifted into orbit during the mission ‘Pegasus XL | Tri-Services Experiments Platform-5 (TSX-5)’, on board a Pegasus XL space rocket.

The launch took place on June 7, 2000, 1:19 p.m. from Vandenberg Space Force Base.

For more information about the launch, click the button.

Launch to space Pegasus XL | Tri-Services Experiments Platform-5 (TSX-5)
Pegasus XL | Tri-Services Experiments Platform-5 (TSX-5)

Agency: N/A

Status: Launch Successful

Launch date: June 7, 2000, 1:19 p.m. UTC

Rocket: Pegasus XL

Launch pad: Vandenberg Space Force Base

Location: Air launch to orbit

...

Latest news about this satellite

There are no fresh news available about this satellite. Check back as we update our databases every day.


Newsletter sign-up

Weekly statistics, charts and insights to help you stay on top of the space industry.